Regional Weather Roundup
Issued by NWS

Home | Current Version | Previous Version | Graphics & Text | Print | Product List | Glossary On
Versions: 1 2 3 4 5 6 7 8 9 10 11 12 13 14 15 16 17 18 19 20 21 22 23 24 25 26 27 28 29 30 31 32 33 34 35 36 37 38 39 40 41 42 43 44 45 46 47 48 49 50
267
ASUS43 KLMK 300402
RWRKY
KENTUCKY REGIONAL WEATHER ROUNDUP
NATIONAL WEATHER SERVICE LOUISVILLE KY
1200 AM EDT THU MAR 30 2017

NOTE "FAIR" INDICATES FEW OR NO CLOUDS BELOW 12,000 FEET
WITH NO SIGNIFICANT WEATHER AND/OR OBSTRUCTIONS TO VISIBILITY.

KYZ001>023-026-027-061>063-070>075-300500-
WESTERN AND SOUTH CENTRAL KENTUCKY

CITY           SKY/WX    TMP DP  RH WIND       PRES   REMARKS
PADUCAH        PTCLDY    68  55  63 SE7       29.80F
HENDERSON      CLOUDY    63  52  67 E7        29.85F
OWENSBORO      CLOUDY    63  53  70 E16       29.87F
HOPKINSVILLE   CLOUDY    69  59  68 CALM      29.85F
BOWLING GREEN  MOCLDY    64  55  72 E6        29.91F
GLASGOW        NOT AVBL
$$

KYZ024-025-028>034-038-045-046-053-300500-
NORTH CENTRAL KENTUCKY

CITY           SKY/WX    TMP DP  RH WIND       PRES   REMARKS
LOUISVILLE/SDF CLOUDY    59  45  59 E10       29.96F
LOUISVILLE/LOU CLOUDY    58  46  64 E13G18    29.96F
FORT KNOX      PTCLDY    58  49  74 E12       29.93F
$$

KYZ035>037-039>044-047>052-055>060-089>105-300500-
NORTHEAST KENTUCKY

CITY           SKY/WX    TMP DP  RH WIND       PRES   REMARKS
LEXINGTON      PTCLDY    54  44  69 E16G24    30.01F
COVINGTON      CLOUDY    53  43  68 SE12      30.01F
FRANKFORT      CLOUDY    54  44  69 E12       29.99F
$$

KYZ054-064>069-076>088-106>120-300500-
SOUTHEAST KENTUCKY

CITY           SKY/WX    TMP DP  RH WIND       PRES   REMARKS
JACKSON        CLEAR     52  45  77 VRB5      30.03F
LONDON         CLEAR     60  48  64 NE5       30.00R
SOMERSET       PTCLDY    59  48  67 E5        29.99S
MIDDLESBORO    CLEAR     55  51  86 CALM      30.00S FOG
MONTICELLO     PTCLDY    57  52  83 NW9       29.98F
$$





USA.gov is the U.S. government's official web portal to all federal, state and local government web resources and services.